CGWOL CYYC-CZVL

Flight info

Callsign CGWOL
Flight time 0h 45m
Altitude 32000
Route BITGA Q995 OILRS DCT DEBGA
Aircraft HDJT/L-SABDGRWY/H

Departure

Time 2026-04-22 17:16
Airport Calgary International Airport (CYYC)

Arrival

Time 2026-04-22 18:01
Airport Edmonton / Villeneuve Airport (CZVL)
Time Latitude Longitude Altitude Speed Heading
2026-04-22 17:12 51.11073 -114.02421 3554 ft 30 kts 179°
2026-04-22 17:12 51.10862 -114.02420 3554 ft 30 kts 180°
2026-04-22 17:12 51.10663 -114.02475 3554 ft 28 kts 197°
2026-04-22 17:13 51.10491 -114.02560 3553 ft 23 kts 197°
2026-04-22 17:13 51.10407 -114.02501 3552 ft 14 kts 88°
2026-04-22 17:13 51.10405 -114.02363 3552 ft 11 kts 90°
2026-04-22 17:13 51.10405 -114.02305 3552 ft 0 kts 90°
2026-04-22 17:15 51.10405 -114.02304 3552 ft 0 kts 90°
2026-04-22 17:15 51.10406 -114.02203 3551 ft 14 kts 88°
2026-04-22 17:15 51.10508 -114.02138 3551 ft 35 kts 359°
2026-04-22 17:15 51.11015 -114.02137 3567 ft 106 kts 360°
2026-04-22 17:16 51.11797 -114.02146 4182 ft 114 kts
2026-04-22 17:16 51.12636 -114.02158 4785 ft 128 kts 358°
2026-04-22 17:16 51.13612 -114.02162 5327 ft 155 kts 358°
2026-04-22 17:16 51.14777 -114.02142 5963 ft 179 kts 358°
2026-04-22 17:17 51.16094 -114.02108 6661 ft 197 kts 358°
2026-04-22 17:17 51.17516 -114.02070 7438 ft 211 kts 358°
2026-04-22 17:17 51.18999 -114.01899 8270 ft 222 kts
2026-04-22 17:17 51.20583 -114.01584 9066 ft 234 kts
2026-04-22 17:18 51.22215 -114.01330 10010 ft 238 kts
2026-04-22 17:18 51.23884 -114.01103 10867 ft 244 kts
2026-04-22 17:18 51.25597 -114.00854 11719 ft 250 kts
2026-04-22 17:18 51.27351 -114.00591 12602 ft 255 kts
2026-04-22 17:19 51.30969 -114.00058 14261 ft 265 kts
2026-04-22 17:19 51.34680 -113.99511 15876 ft 271 kts
2026-04-22 17:20 51.38493 -113.98948 17454 ft 278 kts
2026-04-22 17:20 51.42381 -113.98374 18846 ft 286 kts
2026-04-22 17:21 51.44369 -113.98079 19517 ft 288 kts
2026-04-22 17:21 51.48412 -113.97479 20838 ft 295 kts 360°
2026-04-22 17:22 51.52521 -113.96191 22141 ft 305 kts
2026-04-22 17:22 51.54610 -113.95476 22793 ft 308 kts
2026-04-22 17:22 51.58853 -113.94018 23970 ft 315 kts
2026-04-22 17:23 51.61006 -113.93262 24499 ft 319 kts
2026-04-22 17:23 51.65351 -113.91567 25547 ft 327 kts
2026-04-22 17:23 51.67575 -113.90696 26064 ft 331 kts
2026-04-22 17:24 51.69827 -113.89799 26589 ft 335 kts
2026-04-22 17:24 51.72102 -113.88881 27113 ft 339 kts
2026-04-22 17:24 51.74405 -113.87957 27634 ft 343 kts
2026-04-22 17:24 51.76739 -113.87024 28161 ft 347 kts
2026-04-22 17:25 51.79100 -113.86077 28684 ft 351 kts
2026-04-22 17:25 51.81454 -113.85130 29219 ft 355 kts
2026-04-22 17:25 51.83864 -113.84159 29722 ft 359 kts
2026-04-22 17:25 51.86285 -113.83185 30148 ft 363 kts
2026-04-22 17:26 51.88764 -113.82184 30643 ft 365 kts
2026-04-22 17:26 51.91228 -113.81186 31152 ft 366 kts
2026-04-22 17:26 51.93702 -113.80188 31651 ft 367 kts
2026-04-22 17:26 51.96185 -113.79185 32054 ft 373 kts
2026-04-22 17:27 51.98760 -113.78154 32053 ft 389 kts
2026-04-22 17:27 52.01435 -113.77068 32060 ft 403 kts
2026-04-22 17:27 52.04202 -113.75936 32062 ft 415 kts
2026-04-22 17:27 52.07046 -113.74776 32061 ft 426 kts
2026-04-22 17:28 52.12721 -113.72468 32057 ft 441 kts
2026-04-22 17:28 52.18773 -113.69986 32058 ft 451 kts
2026-04-22 17:29 52.24882 -113.67487 32060 ft 454 kts
2026-04-22 17:29 52.31021 -113.64960 32062 ft 455 kts
2026-04-22 17:30 52.37130 -113.62444 32065 ft 455 kts
2026-04-22 17:30 52.43270 -113.59909 32074 ft 456 kts
2026-04-22 17:31 52.49406 -113.57359 32079 ft 451 kts
2026-04-22 17:31 52.52432 -113.56097 31814 ft 451 kts
2026-04-22 17:31 52.55502 -113.54830 31230 ft 456 kts
2026-04-22 17:32 52.58554 -113.53559 30632 ft 445 kts
2026-04-22 17:32 52.61546 -113.52391 30047 ft 438 kts
2026-04-22 17:32 52.64562 -113.51938 29429 ft 431 kts 354°
2026-04-22 17:32 52.67547 -113.52152 28860 ft 429 kts 350°
2026-04-22 17:33 52.69529 -113.52320 28485 ft 431 kts 351°
2026-04-22 17:33 52.73545 -113.52467 27712 ft 428 kts 352°
2026-04-22 17:33 52.76363 -113.53014 26901 ft 403 kts 343°
2026-04-22 17:33 52.79034 -113.53999 25997 ft 378 kts 340°
2026-04-22 17:34 52.81537 -113.54953 25122 ft 361 kts 342°
2026-04-22 17:34 52.83986 -113.55567 24291 ft 360 kts 347°
2026-04-22 17:34 52.86457 -113.56000 23482 ft 353 kts 347°
2026-04-22 17:34 52.88876 -113.56595 22556 ft 346 kts 344°
2026-04-22 17:35 52.91244 -113.57299 21628 ft 344 kts 344°
2026-04-22 17:35 52.93588 -113.57902 20739 ft 345 kts 346°
2026-04-22 17:35 52.95969 -113.58437 19867 ft 344 kts 347°
2026-04-22 17:35 52.98337 -113.59029 19021 ft 342 kts 346°
2026-04-22 17:36 53.00677 -113.59657 18194 ft 341 kts 346°
2026-04-22 17:36 53.03024 -113.60248 17280 ft 340 kts 347°
2026-04-22 17:36 53.05362 -113.60816 16366 ft 337 kts 347°
2026-04-22 17:36 53.07663 -113.61403 15496 ft 333 kts 347°
2026-04-22 17:37 53.09923 -113.61983 14829 ft 324 kts 347°
2026-04-22 17:37 53.12123 -113.62539 14218 ft 315 kts 348°
2026-04-22 17:37 53.14233 -113.63066 13630 ft 307 kts 347°
2026-04-22 17:37 53.16328 -113.63604 13020 ft 300 kts 347°
2026-04-22 17:38 53.18336 -113.64122 12646 ft 288 kts 348°
2026-04-22 17:38 53.20291 -113.64608 12285 ft 279 kts 348°
2026-04-22 17:38 53.22195 -113.65097 11914 ft 270 kts 348°
2026-04-22 17:38 53.24027 -113.65568 11561 ft 262 kts 348°
2026-04-22 17:39 53.25812 -113.66023 11217 ft 256 kts 348°
2026-04-22 17:39 53.27554 -113.66466 10880 ft 251 kts 348°
2026-04-22 17:39 53.30941 -113.67336 10229 ft 246 kts 349°
2026-04-22 17:40 53.32622 -113.67766 9905 ft 243 kts 349°
2026-04-22 17:40 53.34280 -113.68191 9580 ft 240 kts 349°
2026-04-22 17:40 53.35925 -113.68610 9247 ft 237 kts 349°
2026-04-22 17:40 53.37542 -113.69025 8931 ft 233 kts 349°
2026-04-22 17:41 53.39137 -113.69440 8622 ft 230 kts 349°
2026-04-22 17:41 53.40715 -113.69843 8325 ft 229 kts 349°
2026-04-22 17:41 53.42285 -113.70245 8026 ft 227 kts 349°
2026-04-22 17:41 53.43853 -113.70650 7727 ft 227 kts 349°
2026-04-22 17:42 53.45408 -113.71052 7430 ft 226 kts 349°
2026-04-22 17:42 53.46939 -113.71447 7136 ft 224 kts 349°
2026-04-22 17:42 53.47968 -113.71742 6939 ft 220 kts 345°
2026-04-22 17:42 53.49710 -113.73306 6575 ft 213 kts 319°
2026-04-22 17:43 53.50646 -113.75194 6306 ft 209 kts 302°
2026-04-22 17:43 53.51165 -113.77455 6027 ft 208 kts 284°
2026-04-22 17:43 53.51288 -113.79873 5747 ft 206 kts 278°
2026-04-22 17:43 53.51648 -113.82112 5486 ft 199 kts 298°
2026-04-22 17:44 53.52385 -113.84010 5230 ft 192 kts 314°
2026-04-22 17:44 53.53395 -113.85420 5003 ft 185 kts 330°
2026-04-22 17:44 53.54529 -113.86243 4991 ft 172 kts 343°
2026-04-22 17:44 53.55713 -113.86524 4753 ft 173 kts 358°
2026-04-22 17:45 53.56846 -113.86499 4503 ft 153 kts 358°
2026-04-22 17:45 53.57856 -113.86508 4249 ft 137 kts 357°
2026-04-22 17:45 53.58770 -113.86511 4053 ft 123 kts 356°
2026-04-22 17:45 53.59308 -113.86510 3921 ft 106 kts 358°
2026-04-22 17:46 53.60203 -113.86513 3698 ft 92 kts 355°
2026-04-22 17:46 53.60834 -113.86516 3562 ft 91 kts 355°
2026-04-22 17:46 53.61258 -113.86515 3472 ft 91 kts 355°
2026-04-22 17:46 53.61886 -113.86514 3326 ft 88 kts 355°
2026-04-22 17:47 53.62502 -113.86522 3173 ft 88 kts 354°
2026-04-22 17:47 53.63145 -113.86521 3023 ft 97 kts 355°
2026-04-22 17:47 53.63829 -113.86525 2854 ft 102 kts 355°
2026-04-22 17:47 53.64532 -113.86524 2687 ft 100 kts 355°
2026-04-22 17:48 53.65227 -113.86518 2512 ft 100 kts 355°
2026-04-22 17:48 53.65968 -113.86499 2699 ft 112 kts 359°
2026-04-22 17:48 53.66841 -113.86432 3393 ft 133 kts 357°
2026-04-22 17:48 53.67849 -113.86455 4094 ft 164 kts 355°
2026-04-22 17:49 53.69100 -113.86528 4592 ft 184 kts 357°
2026-04-22 17:49 53.70387 -113.86538 4592 ft 186 kts 358°
2026-04-22 17:49 53.71672 -113.86528 4592 ft 189 kts 358°
2026-04-22 17:49 53.73002 -113.86521 4594 ft 192 kts 358°
2026-04-22 17:50 53.74334 -113.86521 4595 ft 189 kts 358°
2026-04-22 17:50 53.75643 -113.86523 4594 ft 187 kts 358°
2026-04-22 17:50 53.76954 -113.86521 4597 ft 191 kts 357°
2026-04-22 17:50 53.78290 -113.86496 4594 ft 192 kts
2026-04-22 17:51 53.79552 -113.85689 4603 ft 200 kts 30°
2026-04-22 17:51 53.80484 -113.83903 4611 ft 209 kts 58°
2026-04-22 17:51 53.80788 -113.81452 4913 ft 223 kts 89°
2026-04-22 17:51 53.80363 -113.78870 5021 ft 235 kts 118°
2026-04-22 17:52 53.79188 -113.77001 5005 ft 234 kts 152°
2026-04-22 17:52 53.77622 -113.76331 4997 ft 233 kts 178°
2026-04-22 17:52 53.76020 -113.76239 5001 ft 233 kts 180°
2026-04-22 17:52 53.74386 -113.76064 5003 ft 233 kts 176°
2026-04-22 17:53 53.72766 -113.75786 4999 ft 234 kts 175°
2026-04-22 17:53 53.71146 -113.75522 5002 ft 235 kts 176°
2026-04-22 17:53 53.69522 -113.75289 5003 ft 235 kts 177°
2026-04-22 17:53 53.67889 -113.75050 5005 ft 233 kts 176°
2026-04-22 17:54 53.66263 -113.74801 5004 ft 234 kts 176°
2026-04-22 17:54 53.64634 -113.74556 5002 ft 236 kts 176°
2026-04-22 17:54 53.63004 -113.74313 5003 ft 233 kts 176°
2026-04-22 17:54 53.61391 -113.74073 5006 ft 235 kts 176°
2026-04-22 17:55 53.59766 -113.73830 5008 ft 233 kts 176°
2026-04-22 17:55 53.58149 -113.73590 5009 ft 234 kts 176°
2026-04-22 17:55 53.56528 -113.73347 5008 ft 233 kts 176°
2026-04-22 17:55 53.54904 -113.73165 5006 ft 233 kts 186°
2026-04-22 17:56 53.53396 -113.73904 5003 ft 229 kts 212°
2026-04-22 17:56 53.52180 -113.75544 5008 ft 221 kts 236°
2026-04-22 17:56 53.51454 -113.77748 5011 ft 212 kts 257°
2026-04-22 17:56 53.51259 -113.80158 5011 ft 205 kts 278°
2026-04-22 17:57 53.51562 -113.82421 5012 ft 199 kts 297°
2026-04-22 17:57 53.52297 -113.84354 5013 ft 195 kts 315°
2026-04-22 17:57 53.53358 -113.85739 5014 ft 193 kts 333°
2026-04-22 17:57 53.54593 -113.86435 4997 ft 180 kts 350°
2026-04-22 17:58 53.55842 -113.86509 4750 ft 179 kts 359°
2026-04-22 17:58 53.57054 -113.86512 4473 ft 174 kts 358°
2026-04-22 17:58 53.58244 -113.86517 4185 ft 166 kts 357°
2026-04-22 17:58 53.59369 -113.86517 3923 ft 156 kts 358°
2026-04-22 17:59 53.60423 -113.86517 3674 ft 146 kts 357°
2026-04-22 17:59 53.61406 -113.86516 3458 ft 137 kts 357°
2026-04-22 17:59 53.62319 -113.86515 3244 ft 125 kts 355°
2026-04-22 17:59 53.63119 -113.86518 3021 ft 107 kts 355°
2026-04-22 18:00 53.63583 -113.86518 2914 ft 94 kts 355°
2026-04-22 18:00 53.64402 -113.86517 2712 ft 88 kts 355°
2026-04-22 18:00 53.65041 -113.86510 2591 ft 94 kts 354°
2026-04-22 18:00 53.65708 -113.86522 2422 ft 97 kts 356°
2026-04-22 18:01 53.66365 -113.86519 2268 ft 90 kts 355°
2026-04-22 18:01 53.66900 -113.86531 2258 ft 60 kts
2026-04-22 18:01 53.67171 -113.86523 2258 ft 19 kts
2026-04-22 18:01 53.67217 -113.86431 2257 ft 11 kts 89°
2026-04-22 18:02 53.67212 -113.86281 2252 ft 14 kts 100°
2026-04-22 18:02 53.67193 -113.86112 2248 ft 15 kts 100°
2026-04-22 18:02 53.67176 -113.85943 2245 ft 14 kts 102°
2026-04-22 18:02 53.67138 -113.85894 2245 ft 1 kts 212°
2026-04-22 18:03 53.67131 -113.85904 2246 ft 3 kts 228°
2026-04-22 18:03 53.67130 -113.85917 2246 ft 1 kts 341°
2026-04-22 18:03 53.67129 -113.85891 2246 ft 8 kts 101°
2026-04-22 18:03 53.67119 -113.85858 2245 ft 3 kts 191°
2026-04-22 18:04 53.67102 -113.85864 2246 ft 0 kts 220°
2026-04-22 18:04 53.67102 -113.85866 2246 ft 0 kts 268°
2026-04-22 18:04 53.67102 -113.85867 2246 ft 0 kts 280°